DB0ADS-6 Weather Reports


time (UTC)temp
F
wind
direction
speed
knots
gust
knots
rain 1hr
in
rain 24hr
in
rain mn
in
humidity
%
barometer
mb
20260507062103 48 268 2.6 6.1 0.01 0.14 0.13 94 1008.9
20260507061601 48 286 1.7 5.2 0.01 0.14 0.13 94 1008.8
20260507061059 48 282 2.6 5.2 0.01 0.14 0.13 94 1008.7
20260507060618 48 265 0.9 1.7 0.01 0.14 0.13 95 1008.6
20260507060056 48 251 0.9 3.5 0.01 0.14 0.13 95 1008.5
20260507055555 48 269 1.7 3.5 0.01 0.14 0.13 94 1008.4
20260507055052 48 231 1.7 3.5 0.01 0.14 0.13 95 1008.3
20260507054552 48 272 1.7 5.2 0.01 0.14 0.13 94 1008.3
20260507054051 48 282 1.7 5.2 0.01 0.14 0.13 94 1008.3
20260507053550 48 240 1.7 5.2 0.01 0.14 0.13 94 1008.2
20260507053045 48 237 1.7 3.5 0.00 0.13 0.12 94 1008.2
20260507052544 48 257 1.7 3.5 0.00 0.13 0.12 94 1008.1
20260507052042 48 258 1.7 3.5 0.00 0.13 0.12 94 1008.0
20260507051540 48 260 0.9 3.5 0.00 0.13 0.12 94 1008.1
20260507051039 48 298 0.9 3.5 0.00 0.13 0.12 95 1008.0
20260507050537 48 248 2.6 7.0 0.00 0.13 0.12 95 1007.9
20260507050035 48 260 1.7 5.2 0.00 0.13 0.12 95 1007.9
20260507045533 48 245 1.7 3.5 0.00 0.13 0.12 95 1007.8
20260507045032 48 259 1.7 3.5 0.00 0.13 0.12 95 1007.7
20260507044531 48 291 0.9 3.5 0.00 0.13 0.12 95 1007.7
20260507044028 48 285 0.9 3.5 0.00 0.13 0.12 95 1007.6
20260507043527 48 256 1.7 5.2 0.00 0.13 0.12 95 1007.6
20260507043025 48 250 1.7 3.5 0.00 0.13 0.12 96 1007.6
20260507042523 48 259 0.9 3.5 0.00 0.13 0.12 96 1007.5
20260507042045 48 246 1.7 5.2 0.00 0.13 0.12 96 1007.4
20260507041520 48 270 1.7 5.2 0.00 0.13 0.12 96 1007.3
20260507041018 48 245 0.9 1.7 0.00 0.13 0.12 96 1007.3
20260507040516 48 224 1.7 5.2 0.00 0.13 0.12 96 1007.3
20260507040115 48 222 2.6 3.5 0.00 0.13 0.12 96 1007.2
20260507035613 48 241 0.9 3.5 0.00 0.13 0.12 96 1007.2
20260507035112 48 248 0.9 3.5 0.00 0.13 0.12 96 1007.1
20260507034610 48 257 0.9 1.7 0.00 0.13 0.12 96 1007.0
20260507034109 48 211 1.7 5.2 0.00 0.13 0.12 96 1007.0
20260507033606 48 188 0.9 1.7 0.00 0.13 0.12 96 1007.0
20260507033105 48 225 0.0 1.7 0.00 0.13 0.12 96 1007.0
20260507032603 48 225 0.9 1.7 0.00 0.13 0.12 96 1007.0
20260507032101 48 216 1.7 6.1 0.00 0.13 0.12 95 1007.0
20260507031559 48 232 1.7 3.5 0.00 0.13 0.12 95 1006.9
20260507031058 48 225 1.7 7.0 0.00 0.13 0.12 95 1006.8
20260507030556 48 225 1.7 3.5 0.00 0.13 0.12 95 1006.8
20260507030054 48 235 1.7 3.5 0.00 0.13 0.12 94 1006.8
20260507025552 48 221 1.7 3.5 0.00 0.13 0.12 94 1006.8
20260507025051 48 219 1.7 3.5 0.00 0.13 0.12 94 1006.8
20260507024552 48 234 3.5 7.8 0.00 0.13 0.12 93 1006.8
20260507024047 48 225 2.6 3.5 0.01 0.13 0.12 94 1006.8
20260507023545 48 215 1.7 3.5 0.02 0.13 0.12 94 1006.8
20260507023044 48 216 2.6 5.2 0.02 0.13 0.12 93 1006.8
20260507022542 48 240 2.6 6.1 0.02 0.13 0.12 93 1006.7
20260507022040 48 210 2.6 6.1 0.02 0.13 0.12 93 1006.7
20260507021538 48 250 2.6 6.1 0.02 0.13 0.12 93 1006.7
20260507021057 48 251 2.6 7.0 0.02 0.13 0.12 93 1006.7
20260507020535 48 245 2.6 6.1 0.02 0.13 0.12 92 1006.6
20260507020033 48 266 2.6 6.1 0.02 0.13 0.12 93 1006.6
20260507015532 48 246 2.6 6.1 0.02 0.13 0.12 93 1006.6
20260507015031 48 244 1.7 5.2 0.02 0.13 0.12 93 1006.5
20260507014528 48 270 2.6 5.2 0.04 0.13 0.12 93 1006.5
20260507014027 48 274 2.6 5.2 0.02 0.12 0.11 93 1006.6
20260507013525 48 258 2.6 5.2 0.01 0.11 0.09 93 1006.6
20260507013023 48 249 3.5 11.3 0.01 0.11 0.09 93 1006.6
20260507012521 48 257 2.6 7.0 0.01 0.11 0.09 93 1006.5
20260507012020 49 253 1.7 5.2 0.01 0.11 0.09 93 1006.5
20260507011518 49 246 2.6 5.2 0.02 0.11 0.09 92 1006.5
20260507011016 49 228 3.5 7.8 0.02 0.11 0.09 93 1006.4
20260507010635 49 236 4.3 9.6 0.04 0.11 0.09 93 1006.4
20260507010116 49 224 3.5 7.8 0.04 0.11 0.09 93 1006.3
20260507005611 49 233 4.3 9.6 0.05 0.11 0.09 92 1006.4
20260507005110 49 214 5.2 11.3 0.06 0.11 0.09 92 1006.4
20260507004608 49 227 5.2 11.3 0.05 0.09 0.08 92 1006.4
20260507004129 49 215 4.3 9.6 0.06 0.09 0.08 92 1006.4
20260507003604 49 226 4.3 7.8 0.06 0.09 0.08 92 1006.4
20260507003103 49 224 5.2 11.3 0.07 0.09 0.08 93 1006.3
20260507002621 49 222 4.3 9.6 0.07 0.09 0.08 93 1006.3
20260507002059 49 234 3.5 7.8 0.07 0.09 0.08 94 1006.4
20260507001558 49 190 5.2 9.6 0.06 0.08 0.07 93 1006.4
20260507001056 50 194 4.3 7.8 0.06 0.08 0.07 93 1006.4
20260507000554 50 203 3.5 5.2 0.05 0.07 0.06 92 1006.4
20260507000112 51 194 5.2 9.6 0.05 0.07 0.06 93 1006.4
20260506235552 51 206 4.3 9.6 0.04 0.06 0.05 94 1006.4
20260506235049 51 181 3.5 7.8 0.04 0.05 0.04 94 1006.3
20260506234548 51 179 2.6 5.2 0.04 0.05 0.04 94 1006.3
20260506234045 51 219 1.7 5.2 0.02 0.04 0.02 93 1006.4
20260506233544 51 220 3.5 7.0 0.02 0.04 0.02 93 1006.4
20260506233042 51 220 2.6 9.6 0.01 0.04 0.01 93 1006.3
20260506232540 51 203 3.5 6.1 0.01 0.05 0.01 92 1006.4
20260506232038 51 212 2.6 6.1 0.01 0.05 0.01 92 1006.3
20260506231537 51 211 3.5 7.0 0.01 0.05 0.01 92 1006.3
20260506231055 51 207 2.6 6.1 0.01 0.05 0.01 92 1006.3
20260506230533 51 222 3.5 7.0 0.01 0.05 0.01 92 1006.3
20260506230031 51 212 2.6 6.1 0.01 0.05 0.01 92 1006.1
20260506225530 51 222 2.6 6.1 0.01 0.05 0.01 92 1006.2
20260506225051 51 214 3.5 9.6 0.00 0.04 0.00 92 1006.3
20260506224527 51 209 3.5 7.8 0.00 0.04 0.00 93 1006.2
20260506224025 51 218 3.5 6.1 0.00 0.04 0.00 92 1006.1
20260506223524 51 216 2.6 3.5 0.00 0.04 0.00 93 1006.0
20260506223021 51 207 3.5 6.1 0.00 0.04 0.00 93 1006.0
20260506222519 51 207 3.5 5.2 0.00 0.04 0.00 93 1005.9
20260506222018 51 221 2.6 5.2 0.00 0.04 0.00 92 1006.0
20260506221516 51 214 3.5 6.1 0.00 0.04 0.00 93 1005.9
20260506221114 51 212 2.6 6.1 0.00 0.04 0.00 92 1005.9
20260506220613 51 218 2.6 5.2 0.00 0.04 0.00 92 1005.9
20260506220112 51 208 2.6 5.2 0.00 0.04 0.00 92 1005.9
20260506215609 52 239 2.6 5.2 0.00 0.04 0.04 92 1005.9
20260506215108 52 203 3.5 7.8 0.00 0.04 0.04 92 1005.9
20260506214606 52 217 2.6 7.0 0.00 0.04 0.04 91 1005.9
20260506214104 52 201 3.5 7.0 0.00 0.04 0.04 90 1005.9
20260506213602 52 205 3.5 7.8 0.00 0.04 0.04 90 1005.8
20260506213101 52 209 3.5 5.2 0.00 0.04 0.04 89 1005.8
20260506212559 52 206 3.5 7.8 0.00 0.04 0.04 89 1005.8
20260506212057 52 205 3.5 7.0 0.00 0.04 0.04 88 1005.7
20260506211555 52 211 3.5 6.1 0.00 0.04 0.04 88 1005.6
20260506211054 52 214 3.5 3.5 0.00 0.04 0.04 88 1005.7
20260506210641 52 217 3.5 7.0 0.00 0.04 0.04 87 1005.7
20260506210050 53 227 4.3 6.1 0.00 0.04 0.04 87 1005.7
20260506205552 53 179 4.3 6.1 0.00 0.04 0.04 87 1005.6
20260506205050 53 221 2.6 6.1 0.00 0.04 0.04 87 1005.5
20260506204550 53 217 2.6 5.2 0.00 0.04 0.04 86 1005.5
20260506204044 53 224 3.5 6.1 0.00 0.04 0.04 86 1005.4
20260506203548 53 229 4.3 7.8 0.00 0.04 0.04 85 1005.6
20260506203040 54 227 3.5 7.8 0.00 0.04 0.04 86 1005.5
20260506202538 54 230 1.7 3.5 0.00 0.04 0.04 87 1005.4
20260506202037 54 192 2.6 5.2 0.00 0.04 0.04 87 1005.5
20260506201535 54 201 2.6 3.5 0.00 0.04 0.04 86 1005.4
20260506201033 54 205 3.5 5.2 0.00 0.04 0.04 85 1005.3
20260506200532 54 220 2.6 6.1 0.00 0.04 0.04 84 1005.2
20260506200030 54 225 2.6 6.1 0.00 0.04 0.04 85 1005.1
20260506195529 54 230 2.6 5.2 0.00 0.04 0.04 85 1005.0
20260506195027 54 236 1.7 7.0 0.00 0.04 0.04 85 1005.0
20260506194525 54 225 2.6 6.1 0.00 0.04 0.04 85 1005.0
20260506194023 54 232 1.7 3.5 0.00 0.04 0.04 86 1004.9
20260506193521 54 228 1.7 5.2 0.00 0.04 0.04 86 1004.9
20260506193020 54 221 2.6 6.1 0.00 0.04 0.04 86 1004.9
20260506192518 54 220 2.6 5.2 0.00 0.04 0.04 86 1004.8
20260506192016 54 223 2.6 5.2 0.00 0.04 0.04 86 1004.8
20260506191615 55 207 2.6 6.1 0.00 0.04 0.04 85 1004.8
20260506191113 55 211 3.5 6.1 0.00 0.04 0.04 85 1004.8
20260506190611 55 198 3.5 7.0 0.00 0.04 0.04 84 1004.7
20260506190110 55 206 2.6 5.2 0.00 0.04 0.04 84 1004.6
20260506185608 55 195 3.5 6.1 0.00 0.04 0.04 83 1004.6
20260506185106 55 192 2.6 5.2 0.00 0.04 0.04 83 1004.4
20260506184604 55 211 2.6 5.2 0.00 0.04 0.04 82 1004.3
20260506184123 55 206 1.7 3.5 0.00 0.04 0.04 81 1004.2
20260506183601 55 230 1.7 3.5 0.00 0.04 0.04 80 1004.2
20260506183059 55 199 1.7 3.5 0.00 0.04 0.04 79 1004.0
20260506182617 56 194 1.7 3.5 0.00 0.04 0.04 78 1004.0
20260506182056 56 219 1.7 3.5 0.00 0.04 0.04 77 1003.9
20260506181554 56 210 1.7 3.5 0.00 0.04 0.04 76 1003.9
20260506181052 56 220 1.7 3.5 0.00 0.04 0.04 76 1003.9
20260506180550 56 221 2.6 6.1 0.00 0.04 0.04 74 1003.7
20260506180049 56 225 3.5 7.0 0.00 0.04 0.04 74 1003.7
20260506175607 57 228 1.7 5.2 0.00 0.04 0.04 75 1003.7
20260506175045 57 225 1.7 3.5 0.00 0.04 0.04 75 1003.6
20260506174544 57 229 1.7 3.5 0.00 0.04 0.04 74 1003.6
20260506174042 57 203 0.0 1.7 0.00 0.04 0.04 77 1003.6
20260506173540 57 203 0.9 1.7 0.00 0.04 0.04 78 1003.6
20260506173038 57 203 0.0 1.7 0.00 0.04 0.04 77 1003.5
20260506172537 57 203 0.9 1.7 0.00 0.04 0.04 78 1003.5
20260506172035 57 203 0.0 1.7 0.00 0.04 0.04 77 1003.4
20260506171536 57 203 0.0 1.7 0.00 0.04 0.04 79 1003.4
20260506171031 57 203 0.0 1.7 0.00 0.04 0.04 80 1003.4
20260506170530 57 203 0.0 1.7 0.00 0.04 0.04 79 1003.4
20260506170028 57 0.0 0.0 0.00 0.04 0.04 80 1003.2
20260506165526 57 0.0 1.7 0.00 0.04 0.04 81 1003.3
20260506165025 57 203 0.0 1.7 0.00 0.04 0.04 79 1003.2
20260506164523 58 203 0.0 1.7 0.00 0.04 0.04 78 1003.2
20260506164021 58 203 0.9 1.7 0.00 0.06 0.04 77 1003.3
20260506163520 58 203 0.9 1.7 0.00 0.07 0.04 77 1003.2
20260506163018 58 185 1.7 3.5 0.00 0.08 0.04 78 1003.2
20260506162516 58 183 1.7 3.5 0.00 0.09 0.04 76 1003.1
20260506162115 58 219 1.7 3.5 0.00 0.11 0.04 76 1003.2
20260506161613 58 266 0.9 1.7 0.01 0.13 0.04 77 1003.1
20260506161111 58 0.0 1.7 0.01 0.14 0.04 78 1003.1
20260506160609 58 225 0.0 1.7 0.01 0.17 0.04 78 1003.2
20260506160108 57 225 0.0 1.7 0.01 0.19 0.04 79 1003.3
20260506155606 57 225 0.0 1.7 0.01 0.21 0.04 79 1003.3
20260506155104 57 225 0.9 3.5 0.01 0.22 0.04 80 1003.5
20260506154603 57 213 2.6 5.2 0.01 0.24 0.04 81 1003.5
20260506154101 57 220 2.6 6.1 0.01 0.25 0.04 80 1003.6
20260506153559 57 225 1.7 5.2 0.01 0.25 0.04 79 1003.6
20260506153057 57 248 1.7 3.5 0.01 0.25 0.04 78 1003.7
20260506152623 57 214 1.7 5.2 0.01 0.27 0.04 77 1003.7
20260506152054 58 240 0.9 3.5 0.01 0.30 0.04 77 1003.7
20260506151552 58 225 1.7 3.5 0.00 0.31 0.02 72 1003.7
20260506151050 59 225 2.6 6.1 0.00 0.34 0.02 68 1003.7
20260506150552 60 229 3.5 6.1 0.00 0.34 0.02 67 1003.7
20260506150054 61 221 3.5 5.2 0.00 0.34 0.02 67 1003.6
20260506145545 61 215 2.6 6.1 0.00 0.34 0.02 66 1003.6
20260506145044 61 225 1.7 3.5 0.00 0.34 0.02 65 1003.5
20260506144542 61 255 0.9 3.5 0.00 0.34 0.02 64 1003.4
20260506144040 62 246 1.7 3.5 0.00 0.34 0.02 62 1003.5
20260506143538 62 254 0.9 3.5 0.00 0.34 0.02 62 1003.4
20260506143036 62 272 0.9 3.5 0.00 0.34 0.02 62 1003.4
20260506142535 62 212 1.7 1.7 0.00 0.34 0.02 63 1003.3
20260506142033 62 176 1.7 3.5 0.00 0.34 0.02 63 1003.3
20260506141531 62 192 2.6 3.5 0.00 0.34 0.02 63 1003.3
20260506141030 62 289 1.7 3.5 0.00 0.34 0.02 62 1003.4
20260506140528 62 278 0.9 3.5 0.00 0.34 0.02 62 1003.4
20260506140026 62 228 1.7 3.5 0.00 0.34 0.02 62 1003.5
20260506135531 62 221 1.7 3.5 0.00 0.34 0.02 63 1003.5
20260506135023 63 212 0.9 1.7 0.00 0.34 0.02 60 1003.5
20260506134521 63 203 0.0 3.5 0.00 0.34 0.02 60 1003.5
20260506134019 63 148 0.9 3.5 0.00 0.34 0.02 61 1003.5
20260506133518 62 135 1.7 3.5 0.00 0.34 0.02 59 1003.6
20260506133036 62 138 4.3 7.8 0.00 0.34 0.02 61 1003.6
20260506132614 62 140 3.5 5.2 0.00 0.34 0.02 60 1003.6
20260506132112 63 158 1.7 5.2 0.00 0.34 0.02 59 1003.5
20260506131631 63 147 1.7 3.5 0.00 0.34 0.02 60 1003.5
20260506131109 63 138 1.7 3.5 0.00 0.34 0.02 59 1003.5
20260506130607 63 132 1.7 3.5 0.00 0.34 0.02 58 1003.5
20260506130105 64 298 1.7 3.5 0.00 0.34 0.02 56 1003.5
20260506125604 64 288 0.9 3.5 0.00 0.34 0.02 58 1003.5
20260506125122 63 225 0.9 1.7 0.00 0.34 0.02 59 1003.6
20260506124601 62 235 1.7 3.5 0.00 0.34 0.02 61 1003.6
20260506124059 62 139 3.5 6.1 0.00 0.34 0.02 62 1003.6
20260506123557 62 190 1.7 6.1 0.00 0.34 0.02 61 1003.7
20260506123056 63 187 3.5 7.0 0.00 0.34 0.02 61 1003.8
20260506122614 63 232 1.7 5.2 0.00 0.34 0.02 60 1003.7
20260506122116 62 210 2.6 6.1 0.00 0.34 0.02 62 1003.8
20260506121551 63 237 2.6 5.2 0.00 0.34 0.02 59 1003.8
20260506121051 63 268 2.6 5.2 0.00 0.34 0.02 59 1003.8
20260506120554 63 256 1.7 3.5 0.00 0.34 0.02 59 1003.8
20260506120045 62 146 1.7 3.5 0.00 0.34 0.02 63 1003.8
20260506115543 62 175 0.9 3.5 0.00 0.34 0.02 61 1004.0
20260506115045 62 168 1.7 3.5 0.00 0.34 0.02 63 1003.9
20260506114540 62 304 0.9 3.5 0.00 0.34 0.02 60 1003.9
20260506114038 63 319 1.7 5.2 0.00 0.34 0.02 60 1003.9
20260506113537 63 183 1.7 3.5 0.00 0.34 0.02 61 1004.0
20260506113035 62 186 0.9 3.5 0.00 0.34 0.02 61 1003.9
20260506112533 62 225 1.7 6.1 0.00 0.34 0.02 60 1004.0
20260506112031 62 229 2.6 6.1 0.00 0.34 0.02 63 1004.1
20260506111530 62 185 2.6 3.5 0.00 0.34 0.02 62 1004.1
20260506111035 61 140 1.7 3.5 0.00 0.34 0.02 62 1004.2
20260506110527 61 194 2.6 6.1 0.00 0.34 0.02 61 1004.1
20260506110024 62 218 1.7 5.2 0.00 0.34 0.02 61 1004.1
20260506105523 62 169 3.5 7.0 0.00 0.34 0.02 62 1004.2
20260506105021 61 175 1.7 5.2 0.00 0.34 0.02 64 1004.2
20260506104519 61 161 4.3 6.1 0.00 0.34 0.02 65 1004.2
20260506104038 62 230 1.7 7.0 0.00 0.34 0.02 61 1004.2
20260506103536 61 247 0.9 3.5 0.00 0.34 0.02 61 1004.4
20260506103115 61 228 3.5 5.2 0.00 0.34 0.02 64 1004.2
20260506102614 61 161 1.7 3.5 0.00 0.34 0.02 64 1004.3
20260506102111 60 193 2.6 5.2 0.00 0.34 0.02 64 1004.3
20260506101609 61 196 4.3 7.0 0.00 0.34 0.02 65 1004.4
20260506101128 61 160 2.6 7.0 0.00 0.34 0.02 63 1004.4
20260506100606 60 187 3.5 7.0 0.00 0.34 0.02 66 1004.4
20260506100124 61 219 1.7 5.2 0.00 0.34 0.02 66 1004.3
20260506095603 61 177 2.6 3.5 0.00 0.34 0.02 68 1004.3
20260506095101 60 155 5.2 9.6 0.00 0.34 0.02 70 1004.3
20260506094559 60 156 2.6 9.6 0.00 0.34 0.02 70 1004.3
20260506094057 59 231 2.6 6.1 0.00 0.34 0.02 70 1004.3
20260506093556 59 151 1.7 5.2 0.00 0.34 0.02 71 1004.4
20260506093054 59 146 3.5 5.2 0.00 0.34 0.02 72 1004.5
20260506092552 59 180 3.5 6.1 0.00 0.34 0.02 71 1004.5
20260506092051 58 201 2.6 5.2 0.00 0.34 0.02 73 1004.6
20260506091550 58 221 2.6 6.1 0.00 0.34 0.02 75 1004.5
20260506091050 58 221 2.6 6.1 0.00 0.34 0.02 76 1004.6
20260506090546 57 208 1.7 5.2 0.00 0.34 0.02 78 1004.6
20260506090044 58 202 0.9 3.5 0.00 0.34 0.02 77 1004.6
20260506085542 58 213 1.7 3.5 0.00 0.34 0.02 77 1004.6
20260506085101 58 183 1.7 3.5 0.00 0.34 0.02 77 1004.6
20260506084539 59 229 1.7 3.5 0.00 0.34 0.02 75 1004.6
20260506084037 58 170 2.6 5.2 0.00 0.34 0.02 77 1004.6
20260506083535 57 139 2.6 5.2 0.00 0.34 0.02 79 1004.5
20260506083033 56 127 3.5 6.1 0.00 0.34 0.02 80 1004.6
20260506082532 57 185 2.6 7.0 0.00 0.34 0.02 79 1004.5
20260506082030 56 203 1.7 5.2 0.00 0.34 0.02 81 1004.5
20260506081529 55 272 0.9 3.5 0.00 0.34 0.02 83 1004.5
20260506081027 55 300 1.7 3.5 0.00 0.34 0.02 83 1004.5
20260506080526 55 260 2.6 6.1 0.00 0.34 0.02 85 1004.5
20260506073116 55 248 1.7 6.1 0.00 0.34 0.02 86 1004.3
20260506072631 55 248 1.7 3.5 0.00 0.34 0.02 87 1004.3
20260506072109 55 239 3.5 6.1 0.00 0.34 0.02 87 1004.3
20260506071611 55 229 2.6 6.1 0.00 0.34 0.02 87 1004.2
20260506071126 55 233 2.6 5.2 0.00 0.34 0.02 87 1004.2
20260506070605 55 227 1.7 3.5 0.00 0.34 0.02 88 1004.2
20260506070103 55 234 2.6 3.5 0.00 0.34 0.02 87 1004.2